QPF
0.00 0.00 0.00 0.00 0.00 0.00 0.00 0.00 0.00 0.00 0.00 0.00 0.00 0.00 0.00 0.00 0.00 0.00 0.00 0.00 0.00 0.00 0.00 0.00 0.00 0.00 0.00 0.00 0.00 0.00 0.00 0.01 0.01 0.00 0.01 0.01 0.00 0.00 0.00 0.00 0.00 0.00 0.00 0.00 0.00 0.00 0.00 0.00 0.00 0.00 0.00 0.00 0.00 0.00
0.00 0.00 0.00 0.00 0.00 0.00 0.00 0.00 0.00 0.00 0.00 0.00 0.00 0.00 0.00 0.00 0.00 0.00 0.00 0.00 0.00 0.01 0.00 0.00 0.00 0.00 0.00 0.00 0.00 0.00 0.00 0.01 0.02 0.06 0.09 0.09 0.07 0.04 0.04 0.01 0.00 0.00 0.00 0.00 0.00 0.00 0.00 0.00 0.00 0.00 0.00 0.00 0.00 0.00
0.00 0.00 0.00 0.00 0.00 0.00 0.00 0.00 0.00 0.00 0.00 0.00 0.00 0.00 0.00 0.00 0.00 0.00 0.00 0.01 0.01 0.00 0.00 0.00 0.00 0.00 0.00 0.00 0.00 0.00 0.00 0.00 0.00 0.00 0.01 0.06 0.05 0.05 0.13 0.06 0.06 0.02 0.00 0.00 0.00 0.00 0.00 0.00 0.00 0.00 0.00 0.00 0.00 0.00
0.00 0.00 0.00 0.00 0.00 0.00 0.00 0.00 0.00 0.00 0.00 0.00 0.00 0.00 0.00 0.00 0.00 0.00 0.00 0.01 0.03 0.01 0.00 0.00 0.00 0.00 0.00 0.00 0.00 0.00 0.00 0.00 0.00 0.00 0.00 0.01 0.01 0.03 0.05 0.05 0.03 0.05 0.02 0.00 0.00 0.00 0.00 0.00 0.00 0.00 0.00 0.00 0.00 0.00
0.00 0.00 0.00 0.00 0.00 0.00 0.00 0.00 0.00 0.00 0.00 0.00 0.00 0.00 0.00 0.00 0.00 0.00 0.00 0.00 0.01 0.01 0.00 0.00 0.00 0.00 0.00 0.00 0.00 0.00 0.00 0.00 0.00 0.00 0.00 0.00 0.00 0.00 0.00 0.00 0.00 0.01 0.03 0.00 0.01 0.00 0.00 0.00 0.00 0.00 0.00 0.00 0.00 0.00
0.00 0.00 0.00 0.00 0.00 0.00 0.00 0.00 0.00 0.00 0.00 0.00 0.00 0.00 0.00 0.00 0.00 0.00 0.01 0.01 0.00 0.01 0.00 0.00 0.00 0.00 0.00 0.00 0.00 0.00 0.00 0.00 0.00 0.00 0.00 0.00 0.00 0.00 0.01 0.00 0.00 0.03 0.02 0.01 0.01 0.00 0.00 0.00 0.00 0.00 0.00 0.00 0.00 0.00
0.00 0.00 0.00 0.00 0.00 0.00 0.00 0.00 0.00 0.00 0.00 0.00 0.00 0.00 0.00 0.00 0.00 0.01 0.01 0.01 0.00 0.00 0.00 0.01 0.00 0.00 0.00 0.00 0.00 0.00 0.00 0.00 0.00 0.00 0.00 0.00 0.00 0.01 0.00 0.00 0.00 0.02 0.05 0.03 0.03 0.02 0.00 0.00 0.00 0.00 0.00 0.00 0.00 0.00
0.00 0.00 0.00 0.00 0.00 0.00 0.00 0.00 0.00 0.00 0.00 0.00 0.00 0.00 0.00 0.00 0.00 0.00 0.00 0.00 0.00 0.00 0.00 0.01 0.00 0.02 0.03 0.03 0.03 0.00 0.00 0.00 0.00 0.00 0.01 0.02 0.04 0.02 0.00 0.00 0.00 0.00 0.02 0.05 0.05 0.06 0.00 0.00 0.00 0.00 0.00 0.00 0.00 0.00
0.00 0.00 0.00 0.00 0.00 0.00 0.00 0.00 0.00 0.00 0.00 0.00 0.00 0.00 0.00 0.00 0.01 0.03 0.00 0.00 0.00 0.00 0.01 0.03 0.03 0.04 0.02 0.03 0.05 0.04 0.05 0.03 0.04 0.03 0.01 0.04 0.02 0.01 0.00 0.00 0.00 0.00 0.00 0.06 0.07 0.06 0.01 0.00 0.00 0.00 0.00 0.00 0.00 0.00
0.00 0.00 0.00 0.00 0.00 0.00 0.00 0.00 0.00 0.00 0.00 0.00 0.00 0.01 0.02 0.03 0.01 0.02 0.02 0.05 0.03 0.04 0.02 0.01 0.00 0.00 0.02 0.02 0.01 0.01 0.04 0.09 0.10 0.03 0.04 0.03 0.00 0.01 0.00 0.00 0.00 0.00 0.00 0.01 0.06 0.07 0.03 0.01 0.00 0.00 0.00 0.00 0.00 0.00
0.00 0.00 0.00 0.00 0.00 0.00 0.00 0.00 0.00 0.00 0.00 0.01 0.02 0.01 0.03 0.01 0.03 0.04 0.05 0.04 0.03 0.03 0.01 0.00 0.00 0.00 0.00 0.02 0.06 0.03 0.01 0.01 0.04 0.06 0.07 0.03 0.03 0.06 0.05 0.05 0.00 0.00 0.00 0.01 0.01 0.06 0.05 0.04 0.00 0.00 0.00 0.00 0.00 0.00
0.00 0.00 0.00 0.00 0.00 0.00 0.00 0.00 0.00 0.00 0.02 0.02 0.01 0.00 0.00 0.04 0.08 0.02 0.02 0.07 0.06 0.06 0.05 0.04 0.05 0.01 0.00 0.00 0.02 0.05 0.04 0.03 0.04 0.10 0.08 0.04 0.05 0.05 0.13 0.11 0.05 0.01 0.00 0.00 0.00 0.01 0.01 0.01 0.02 0.00 0.00 0.00 0.00 0.00
0.00 0.00 0.00 0.00 0.00 0.00 0.00 0.00 0.00 0.00 0.00 0.01 0.02 0.01 0.01 0.02 0.01 0.00 0.01 0.05 0.07 0.06 0.07 0.04 0.02 0.04 0.05 0.04 0.02 0.04 0.06 0.07 0.09 0.10 0.09 0.07 0.04 0.05 0.06 0.06 0.02 0.00 0.00 0.00 0.00 0.00 0.00 0.00 0.00 0.00 0.00 0.00 0.00 0.00
0.00 0.00 0.00 0.00 0.00 0.00 0.00 0.00 0.00 0.00 0.02 0.03 0.02 0.01 0.00 0.00 0.00 0.01 0.07 0.09 0.05 0.08 0.06 0.02 0.04 0.10 0.11 0.10 0.04 0.08 0.02 0.06 0.08 0.11 0.07 0.01 0.01 0.00 0.01 0.08 0.06 0.01 0.00 0.00 0.00 0.00 0.00 0.00 0.00 0.00 0.00 0.00 0.00 0.00
0.00 0.00 0.00 0.00 0.00 0.00 0.00 0.00 0.00 0.02 0.02 0.01 0.01 0.01 0.00 0.00 0.00 0.00 0.01 0.05 0.11 0.05 0.01 0.00 0.01 0.06 0.08 0.08 0.07 0.06 0.06 0.09 0.07 0.06 0.02 0.00 0.00 0.00 0.02 0.04 0.06 0.05 0.03 0.00 0.00 0.00 0.00 0.00 0.00 0.00 0.00 0.00 0.00 0.00
0.00 0.01 0.01 0.00 0.00 0.00 0.00 0.01 0.02 0.02 0.01 0.01 0.01 0.00 0.00 0.00 0.00 0.00 0.01 0.08 0.03 0.00 0.00 0.00 0.01 0.05 0.06 0.07 0.08 0.10 0.09 0.07 0.04 0.03 0.00 0.00 0.01 0.00 0.03 0.05 0.04 0.01 0.02 0.01 0.00 0.00 0.00 0.00 0.00 0.00 0.00 0.00 0.00 0.00
0.00 0.04 0.00 0.00 0.00 0.00 0.00 0.02 0.03 0.02 0.01 0.01 0.00 0.00 0.00 0.00 0.00 0.00 0.00 0.01 0.00 0.01 0.00 0.01 0.02 0.04 0.08 0.09 0.10 0.11 0.10 0.02 0.00 0.01 0.01 0.03 0.02 0.02 0.00 0.00 0.00 0.02 0.07 0.06 0.02 0.00 0.00 0.00 0.00 0.00 0.00 0.00 0.00 0.00
0.03 0.03 0.00 0.00 0.01 0.04 0.03 0.01 0.02 0.01 0.01 0.00 0.00 0.00 0.00 0.00 0.00 0.00 0.00 0.00 0.01 0.05 0.00 0.03 0.01 0.03 0.08 0.07 0.09 0.07 0.08 0.04 0.06 0.10 0.10 0.09 0.05 0.03 0.04 0.01 0.03 0.00 0.06 0.04 0.03 0.00 0.00 0.00 0.00 0.00 0.00 0.00 0.00 0.00
0.01 0.01 0.00 0.00 0.02 0.03 0.05 0.03 0.03 0.02 0.00 0.00 0.00 0.00 0.00 0.00 0.00 0.00 0.00 0.00 0.00 0.02 0.01 0.04 0.04 0.07 0.08 0.03 0.05 0.02 0.01 0.03 0.02 0.04 0.07 0.13 0.10 0.06 0.04 0.05 0.08 0.01 0.01 0.03 0.00 0.01 0.03 0.00 0.00 0.00 0.00 0.00 0.00 0.00
0.00 0.00 0.00 0.00 0.00 0.01 0.01 0.03 0.04 0.02 0.00 0.00 0.00 0.00 0.00 0.00 0.00 0.00 0.00 0.00 0.00 0.01 0.03 0.02 0.04 0.03 0.00 0.00 0.00 0.00 0.00 0.00 0.00 0.00 0.01 0.07 0.05 0.13 0.10 0.07 0.03 0.01 0.00 0.01 0.00 0.00 0.01 0.00 0.00 0.00 0.00 0.00 0.00 0.00
0.01 0.01 0.01 0.00 0.04 0.04 0.02 0.04 0.05 0.03 0.01 0.00 0.00 0.00 0.00 0.00 0.00 0.00 0.00 0.00 0.00 0.00 0.01 0.00 0.00 0.00 0.00 0.00 0.00 0.00 0.00 0.00 0.00 0.00 0.01 0.05 0.01 0.03 0.03 0.03 0.00 0.01 0.02 0.01 0.00 0.00 0.01 0.00 0.01 0.03 0.02 0.00 0.00 0.00
0.05 0.02 0.06 0.04 0.05 0.04 0.02 0.01 0.01 0.01 0.01 0.00 0.00 0.00 0.00 0.02 0.05 0.01 0.00 0.00 0.00 0.00 0.00 0.00 0.00 0.00 0.00 0.00 0.00 0.00 0.00 0.00 0.00 0.00 0.03 0.06 0.09 0.04 0.03 0.00 0.00 0.00 0.03 0.06 0.04 0.01 0.01 0.00 0.00 0.00 0.00 0.02 0.02 0.00
0.01 0.02 0.02 0.02 0.03 0.02 0.00 0.00 0.01 0.00 0.01 0.01 0.05 0.07 0.06 0.08 0.08 0.05 0.03 0.00 0.00 0.00 0.00 0.00 0.00 0.00 0.00 0.01 0.01 0.03 0.12 0.18 0.07 0.07 0.15 0.12 0.09 0.09 0.07 0.04 0.01 0.00 0.01 0.03 0.00 0.03 0.01 0.00 0.00 0.00 0.00 0.01 0.00 0.00
0.01 0.01 0.02 0.04 0.02 0.00 0.01 0.01 0.01 0.00 0.01 0.01 0.05 0.08 0.11 0.12 0.10 0.08 0.03 0.01 0.01 0.00 0.00 0.02 0.04 0.08 0.13 0.16 0.17 0.13 0.15 0.10 0.11 0.10 0.13 0.14 0.09 0.11 0.13 0.06 0.06 0.05 0.07 0.12 0.10 0.08 0.07 0.04 0.01 0.05 0.05 0.06 0.05 0.08
0.01 0.00 0.01 0.01 0.02 0.01 0.01 0.01 0.00 0.01 0.01 0.04 0.04 0.08 0.11 0.06 0.07 0.04 0.08 0.14 0.07 0.08 0.10 0.14 0.15 0.11 0.15 0.14 0.12 0.05 0.01 0.02 0.06 0.06 0.04 0.04 0.04 0.07 0.04 0.05 0.02 0.02 0.02 0.06 0.08 0.15 0.13 0.10 0.05 0.04 0.03 0.05 0.06 0.11
0.01 0.01 0.01 0.02 0.01 0.01 0.01 0.02 0.01 0.00 0.01 0.03 0.06 0.08 0.04 0.03 0.02 0.05 0.18 0.16 0.12 0.12 0.16 0.17 0.16 0.11 0.06 0.03 0.02 0.00 0.00 0.00 0.01 0.01 0.00 0.00 0.00 0.02 0.03 0.01 0.01 0.03 0.05 0.02 0.01 0.00 0.01 0.00 0.01 0.00 0.00 0.00 0.01 0.01
0.00 0.00 0.00 0.00 0.02 0.03 0.02 0.02 0.02 0.03 0.03 0.04 0.04 0.01 0.00 0.00 0.00 0.12 0.16 0.09 0.08 0.04 0.11 0.12 0.06 0.05 0.03 0.03 0.02 0.02 0.00 0.00 0.00 0.00 0.00 0.00 0.00 0.00 0.00 0.00 0.00 0.00 0.00 0.00 0.00 0.00 0.00 0.00 0.00 0.00 0.00 0.00 0.00 0.00
0.00 0.00 0.00 0.02 0.02 0.01 0.01 0.01 0.01 0.01 0.03 0.02 0.00 0.00 0.00 0.00 0.01 0.06 0.06 0.01 0.00 0.04 0.06 0.05 0.02 0.01 0.01 0.01 0.01 0.00 0.00 0.00 0.00 0.00 0.00 0.00 0.00 0.00 0.00 0.00 0.00 0.00 0.00 0.00 0.00 0.00 0.00 0.00 0.00 0.00 0.00 0.00 0.00 0.00
0.00 0.00 0.01 0.02 0.02 0.02 0.01 0.01 0.00 0.02 0.02 0.00 0.00 0.00 0.00 0.01 0.00 0.00 0.03 0.03 0.01 0.02 0.02 0.00 0.00 0.00 0.00 0.00 0.00 0.00 0.00 0.00 0.00 0.00 0.00 0.00 0.00 0.00 0.00 0.00 0.00 0.00 0.00 0.00 0.00 0.00 0.00 0.00 0.00 0.00 0.00 0.00 0.00 0.00
0.00 0.00 0.00 0.01 0.01 0.01 0.03 0.02 0.02 0.02 0.00 0.00 0.00 0.00 0.00 0.00 0.00 0.00 0.00 0.01 0.02 0.06 0.02 0.00 0.00 0.00 0.00 0.00 0.00 0.00 0.00 0.00 0.00 0.00 0.00 0.00 0.00 0.00 0.00 0.00 0.00 0.00 0.00 0.00 0.00 0.00 0.00 0.00 0.00 0.00 0.00 0.00 0.00 0.00
0.02 0.02 0.01 0.01 0.00 0.00 0.01 0.00 0.00 0.00 0.00 0.01 0.00 0.00 0.00 0.01 0.02 0.00 0.00 0.00 0.00 0.00 0.00 0.00 0.00 0.00 0.00 0.00 0.00 0.00 0.00 0.00 0.00 0.00 0.00 0.00 0.00 0.00 0.00 0.00 0.00 0.00 0.00 0.00 0.00 0.00 0.00 0.00 0.00 0.00 0.00 0.00 0.00 0.00
0.01 0.01 0.01 0.00 0.00 0.00 0.00 0.01 0.02 0.02 0.01 0.01 0.01 0.01 0.00 0.01 0.00 0.00 0.00 0.00 0.00 0.00 0.00 0.00 0.00 0.00 0.00 0.00 0.00 0.00 0.00 0.00 0.00 0.00 0.00 0.00 0.00 0.00 0.00 0.00 0.00 0.00 0.00 0.00 0.00 0.00 0.00 0.00 0.00 0.00 0.00 0.00 0.00 0.00
0.01 0.01 0.01 0.00 0.00 0.00 0.03 0.04 0.02 0.02 0.02 0.05 0.07 0.02 0.00 0.00 0.00 0.00 0.00 0.00 0.00 0.00 0.00 0.00 0.00 0.00 0.00 0.00 0.00 0.00 0.00 0.00 0.00 0.00 0.00 0.00 0.00 0.00 0.00 0.00 0.00 0.00 0.00 0.00 0.00 0.00 0.00 0.00 0.00 0.00 0.00 0.00 0.00 0.00
MSLP
1021.85 1021.81 1021.83 1021.77 1021.66 1021.50 1021.30 1021.09 1020.79 1020.43 1020.13 1019.89 1019.66 1019.36 1019.08 1018.75 1018.47 1017.92 1015.93 1015.13 1014.99 1013.63 1011.32 1010.43 1009.73 1009.03 1008.36 1007.74 1006.86 1005.75 1005.65 1004.90 1004.41 1004.34 1004.10 1003.61 1002.52 1001.41 1000.83 999.85 999.79 1000.24 998.66 998.44 998.56 998.95 999.31 1000.08 1000.76 1001.36 998.77 995.44 994.56 994.74
1021.49 1021.61 1021.61 1021.49 1021.43 1021.31 1021.11 1020.89 1020.62 1020.30 1019.96 1019.76 1019.56 1019.28 1019.05 1018.76 1018.48 1018.25 1016.47 1016.04 1015.67 1015.11 1012.07 1011.09 1010.40 1009.77 1009.19 1008.56 1007.98 1007.19 1006.58 1006.23 1006.33 1006.13 1005.90 1005.58 1004.62 1003.36 1002.32 1001.04 1000.22 999.68 998.96 999.08 998.18 998.75 999.92 1000.25 1001.46 1001.47 1000.31 996.87 995.94 995.93
1021.10 1021.21 1021.34 1021.32 1021.20 1021.12 1020.88 1020.65 1020.40 1020.13 1019.80 1019.50 1019.36 1019.11 1018.90 1018.68 1018.48 1018.38 1017.14 1016.12 1015.27 1014.14 1011.64 1009.50 1007.96 1007.05 1007.37 1007.72 1008.12 1007.80 1006.96 1006.46 1006.27 1006.71 1006.36 1006.54 1005.85 1004.46 1003.78 1002.57 1003.29 1002.75 1001.51 1000.92 1000.92 998.04 999.69 1000.36 1000.98 1000.83 997.75 996.44 996.53 996.71
1020.80 1020.93 1021.01 1021.02 1020.96 1020.83 1020.63 1020.39 1020.17 1019.98 1019.63 1019.28 1019.16 1018.99 1018.73 1018.48 1018.31 1018.15 1016.92 1015.85 1015.91 1014.71 1012.43 1008.20 1006.90 1006.90 1006.80 1006.61 1006.70 1007.16 1007.29 1007.16 1006.91 1006.97 1007.02 1006.75 1006.27 1004.85 1004.14 1003.75 1003.83 1004.28 1004.36 1003.36 1002.42 1000.21 999.36 999.59 999.75 999.50 998.40 996.85 996.88 997.20
1020.55 1020.66 1020.70 1020.71 1020.65 1020.54 1020.28 1020.05 1019.84 1019.70 1019.46 1019.11 1018.91 1018.78 1018.60 1018.32 1018.02 1017.48 1016.43 1015.45 1015.51 1015.60 1013.16 1010.56 1008.96 1007.12 1007.00 1006.66 1006.48 1006.38 1006.77 1007.13 1007.23 1007.05 1006.95 1006.69 1006.23 1005.22 1004.13 1003.47 1002.94 1003.35 1004.56 1004.93 1003.95 1002.92 1001.47 999.39 999.89 999.51 999.24 997.33 997.80 997.95
1020.29 1020.40 1020.43 1020.42 1020.33 1020.18 1019.90 1019.66 1019.50 1019.37 1019.10 1018.80 1018.62 1018.56 1018.37 1018.12 1017.82 1016.98 1015.48 1015.16 1015.32 1015.39 1015.15 1012.17 1008.60 1007.00 1007.12 1006.92 1006.88 1006.90 1006.20 1006.48 1006.87 1006.74 1006.45 1006.45 1006.31 1005.97 1004.98 1003.52 1002.78 1003.62 1004.30 1004.70 1004.50 1003.50 1001.86 998.35 998.05 998.83 998.33 998.21 998.51 998.54
1019.99 1020.06 1020.12 1020.07 1019.95 1019.74 1019.48 1019.28 1019.12 1019.06 1018.80 1018.54 1018.40 1018.27 1018.12 1017.95 1017.48 1016.83 1016.75 1016.57 1016.25 1015.59 1015.54 1013.04 1009.40 1007.63 1007.29 1007.16 1006.81 1006.25 1005.86 1006.16 1007.14 1007.46 1007.14 1006.63 1005.93 1005.84 1005.09 1003.90 1003.16 1003.56 1002.66 1003.26 1003.40 1003.89 1001.22 998.34 997.60 997.53 997.44 997.84 998.44 998.70
1019.74 1019.81 1019.78 1019.73 1019.58 1019.37 1019.15 1018.93 1018.70 1018.59 1018.46 1018.33 1018.19 1018.00 1017.81 1017.58 1017.22 1016.24 1014.72 1015.44 1016.25 1015.92 1015.48 1013.14 1009.15 1007.94 1008.56 1007.73 1007.64 1007.54 1007.18 1007.45 1007.28 1007.00 1006.60 1006.10 1005.72 1005.48 1004.17 1003.17 1002.57 1002.87 1003.00 1002.77 1002.93 1003.53 1002.35 999.37 998.00 997.64 997.46 997.98 998.28 998.83
1019.57 1019.59 1019.51 1019.40 1019.25 1019.05 1018.80 1018.55 1018.38 1018.19 1018.18 1018.08 1017.85 1017.61 1017.10 1016.65 1015.53 1014.55 1014.80 1015.13 1015.47 1015.85 1014.38 1011.80 1009.28 1008.43 1008.09 1008.21 1008.38 1008.49 1008.41 1007.87 1006.83 1006.48 1005.84 1005.64 1004.64 1003.74 1002.94 1003.05 1002.87 1002.38 1002.86 1002.52 1002.65 1002.41 1001.30 999.70 997.88 997.28 997.67 997.87 997.92 999.01
1019.35 1019.30 1019.25 1019.10 1018.92 1018.62 1018.36 1018.16 1017.95 1017.90 1017.91 1017.81 1017.49 1016.52 1015.42 1014.52 1014.56 1014.73 1015.29 1014.97 1014.97 1014.26 1013.19 1010.50 1008.78 1007.95 1007.61 1007.84 1008.11 1008.79 1008.74 1008.16 1006.75 1005.50 1004.77 1004.66 1003.41 1002.85 1002.80 1002.95 1002.63 1001.94 1001.86 1002.23 1002.82 1001.44 1001.72 1000.26 997.52 998.36 997.66 997.97 997.67 999.00
1019.09 1019.04 1018.95 1018.78 1018.54 1018.24 1017.88 1017.69 1017.70 1017.72 1017.44 1016.97 1016.47 1015.22 1014.26 1014.27 1014.00 1013.90 1013.73 1013.67 1012.50 1011.74 1010.59 1008.77 1008.08 1007.64 1007.30 1007.52 1008.00 1008.19 1008.19 1007.94 1006.83 1004.73 1004.60 1003.98 1002.98 1003.21 1003.15 1002.35 1001.04 1001.51 1001.80 1002.31 1002.40 1002.51 1001.47 1000.60 997.53 997.57 997.24 997.33 998.04 999.17
1018.80 1018.74 1018.60 1018.51 1018.29 1018.02 1017.69 1017.57 1017.65 1017.51 1017.24 1017.24 1017.13 1015.41 1014.05 1013.23 1012.92 1012.74 1012.27 1010.94 1010.42 1009.45 1009.02 1008.79 1008.68 1008.30 1007.82 1007.84 1007.41 1007.90 1007.69 1008.05 1006.45 1005.46 1004.84 1003.63 1004.04 1003.84 1003.16 1002.25 1001.24 1000.65 1000.57 1000.65 1000.93 1001.99 1002.38 999.81 998.89 997.17 997.13 997.67 998.46 999.49
1018.54 1018.50 1018.43 1018.28 1018.09 1017.92 1017.70 1017.61 1017.60 1017.55 1017.28 1016.13 1016.12 1014.55 1012.99 1012.01 1011.91 1011.03 1009.44 1008.99 1009.00 1009.19 1009.12 1009.13 1009.22 1008.69 1008.06 1007.39 1007.46 1006.87 1006.58 1006.09 1005.67 1004.85 1003.97 1004.42 1004.05 1003.59 1002.97 1002.30 1001.25 1000.51 999.72 999.22 998.78 999.84 1000.46 999.57 996.41 997.14 997.99 998.51 999.03 999.92
1018.32 1018.22 1018.09 1018.01 1017.85 1017.71 1017.50 1017.44 1017.47 1017.34 1017.03 1015.89 1014.50 1013.62 1012.13 1010.60 1009.69 1008.59 1008.60 1009.13 1009.08 1009.00 1009.17 1009.31 1009.02 1008.68 1007.87 1007.48 1006.44 1005.92 1005.02 1003.78 1003.61 1003.40 1003.60 1003.85 1003.72 1003.33 1003.08 1002.46 1001.62 1000.57 999.85 998.95 998.89 998.68 999.01 999.01 998.75 998.92 998.76 999.04 999.48 1000.10
1018.05 1017.89 1017.74 1017.52 1017.41 1017.34 1017.20 1017.23 1017.22 1016.92 1016.59 1015.17 1013.61 1012.18 1010.39 1009.11 1008.41 1008.28 1007.70 1008.32 1008.86 1008.96 1009.05 1008.95 1008.59 1008.11 1007.67 1007.07 1005.96 1004.92 1003.83 1003.05 1003.32 1003.79 1003.79 1004.07 1003.95 1003.68 1003.09 1002.41 1001.51 1000.43 999.54 998.63 998.32 998.59 998.64 998.92 999.34 999.46 999.33 999.13 999.75 1000.28
1017.78 1017.55 1017.22 1017.27 1017.18 1017.06 1017.06 1017.01 1016.89 1016.77 1015.94 1014.55 1012.84 1010.94 1009.85 1009.01 1007.76 1007.46 1007.14 1008.04 1008.46 1008.77 1009.69 1009.86 1009.00 1007.88 1007.16 1006.51 1005.29 1004.24 1003.60 1003.44 1003.60 1003.70 1003.78 1003.97 1003.80 1003.67 1003.04 1002.35 1001.53 1000.68 999.99 999.39 998.67 997.64 997.69 998.17 998.59 999.55 999.67 999.38 999.73 1000.40
1017.66 1016.93 1017.20 1016.99 1016.91 1016.95 1016.96 1016.81 1016.32 1015.56 1014.27 1012.38 1010.92 1009.56 1009.14 1008.55 1007.90 1007.25 1007.18 1007.76 1008.19 1008.65 1009.39 1009.44 1008.77 1007.19 1006.53 1005.37 1004.59 1004.81 1004.02 1003.72 1003.82 1003.66 1003.73 1003.75 1003.53 1003.34 1003.00 1002.45 1001.78 1001.09 1000.58 999.83 999.35 998.17 998.03 998.14 998.58 998.94 999.33 999.80 999.93 1000.25
1017.11 1016.82 1017.02 1016.90 1016.85 1016.63 1016.44 1016.26 1014.96 1013.55 1012.24 1011.06 1010.10 1009.00 1008.32 1007.98 1007.60 1007.01 1007.27 1007.38 1007.50 1008.28 1008.97 1008.64 1008.60 1007.40 1005.86 1005.10 1004.78 1004.58 1004.07 1003.72 1003.70 1003.67 1003.59 1003.60 1003.50 1003.13 1002.77 1002.29 1001.93 1001.72 1001.13 1001.07 999.99 998.88 998.92 998.63 998.45 998.88 999.50 1000.04 1000.38 1000.49
1016.93 1016.97 1017.04 1016.97 1016.84 1016.62 1015.44 1014.39 1013.77 1012.08 1010.51 1009.43 1009.02 1008.31 1007.96 1007.38 1007.14 1006.55 1006.38 1006.45 1006.67 1007.72 1007.93 1007.73 1006.99 1005.92 1005.01 1004.07 1003.96 1003.05 1003.15 1003.21 1002.96 1003.04 1002.97 1003.04 1003.04 1002.80 1002.31 1001.83 1001.55 1001.37 1001.34 1001.04 1000.22 1000.16 999.88 999.57 999.26 999.25 999.48 999.95 1000.00 1000.01
1017.05 1016.87 1016.83 1016.84 1016.78 1015.88 1014.79 1013.29 1012.35 1011.14 1009.61 1008.89 1008.69 1007.98 1007.66 1006.96 1006.58 1006.43 1006.46 1006.28 1006.56 1006.99 1006.86 1006.23 1005.08 1004.15 1003.91 1003.68 1003.42 1003.04 1003.05 1002.98 1002.72 1002.12 1002.42 1002.30 1002.39 1002.10 1002.08 1001.87 1001.37 1001.08 1000.89 1000.63 1000.28 1000.37 1001.26 1000.49 1000.12 1000.09 999.68 999.63 999.67 999.69
1016.41 1015.83 1016.37 1016.41 1015.93 1015.33 1014.10 1012.24 1011.46 1010.27 1009.44 1008.79 1008.02 1007.86 1007.58 1006.65 1006.42 1006.00 1005.97 1005.61 1005.72 1005.74 1005.43 1004.63 1003.96 1002.97 1003.28 1002.97 1002.67 1002.51 1002.67 1002.68 1002.53 1002.54 1002.27 1002.11 1001.85 1001.48 1001.49 1001.52 1001.52 1001.11 1001.82 1001.83 1001.34 1000.57 1000.63 1000.62 1001.13 1000.72 1000.75 1000.02 999.42 999.38
1016.12 1016.14 1015.98 1015.84 1014.97 1013.95 1012.98 1011.32 1010.54 1010.17 1009.65 1008.42 1007.73 1007.33 1006.76 1006.20 1005.95 1005.47 1005.34 1005.04 1004.71 1004.55 1003.94 1003.41 1003.13 1002.74 1002.61 1002.74 1002.79 1002.70 1002.76 1002.74 1002.62 1002.36 1002.61 1002.37 1002.28 1001.62 1001.83 1001.82 1001.39 1001.33 1001.97 1001.95 1002.11 1001.91 1001.20 1000.72 1000.89 1001.21 1001.07 999.60 999.44 999.68
1016.14 1015.99 1015.34 1014.72 1013.88 1013.04 1012.03 1010.72 1010.22 1009.56 1008.76 1007.89 1007.40 1006.82 1006.05 1005.59 1005.50 1004.98 1004.71 1003.75 1003.20 1003.09 1002.65 1002.88 1002.87 1002.90 1002.94 1002.86 1002.85 1002.73 1003.09 1003.23 1003.12 1003.07 1003.20 1002.94 1002.54 1002.54 1002.64 1002.63 1002.15 1001.76 1001.32 1001.55 1001.47 1001.52 1001.24 1000.93 1000.80 1000.76 1000.27 1000.05 1000.08 1000.38
1016.24 1015.83 1014.87 1013.79 1013.04 1012.19 1010.92 1010.15 1009.76 1009.08 1008.37 1007.81 1007.31 1006.41 1006.00 1005.75 1005.51 1005.19 1004.35 1003.56 1003.39 1003.22 1002.72 1003.09 1002.86 1003.22 1003.49 1003.66 1003.86 1003.82 1003.72 1003.52 1003.73 1003.77 1003.68 1003.32 1003.20 1003.28 1003.02 1003.00 1002.79 1002.45 1002.33 1002.06 1001.70 1001.75 1001.80 1001.41 1001.27 1001.90 1001.96 1001.75 1001.70 1001.72
1015.88 1015.08 1014.45 1013.49 1012.31 1011.44 1010.16 1009.48 1009.16 1008.62 1008.09 1007.56 1007.26 1006.67 1006.57 1006.06 1005.52 1004.90 1004.48 1004.59 1004.48 1004.54 1004.44 1004.42 1004.24 1004.36 1004.44 1004.56 1004.56 1004.48 1004.20 1004.05 1004.10 1003.87 1003.59 1003.62 1003.53 1003.68 1003.71 1003.43 1003.31 1003.25 1002.93 1002.71 1002.48 1002.50 1002.87 1002.25 1002.34 1002.38 1002.52 1002.48 1002.73 1003.08
1014.72 1013.23 1012.87 1011.28 1010.63 1009.96 1009.41 1009.05 1009.08 1008.92 1008.25 1007.81 1007.35 1007.26 1006.95 1006.43 1005.87 1005.49 1005.75 1005.92 1005.84 1005.83 1005.65 1005.33 1005.22 1005.30 1005.36 1005.23 1004.69 1004.76 1004.76 1004.52 1004.28 1003.91 1003.47 1003.39 1003.16 1003.42 1003.56 1003.66 1003.70 1003.81 1003.58 1003.52 1003.34 1003.28 1003.21 1003.11 1002.94 1002.95 1002.98 1003.43 1003.69 1003.95
1013.11 1011.56 1010.98 1010.29 1010.04 1009.85 1009.52 1009.04 1009.10 1009.01 1008.48 1008.12 1008.20 1008.15 1008.14 1007.53 1007.00 1007.03 1006.92 1006.94 1006.62 1006.15 1006.14 1006.24 1005.85 1005.92 1005.87 1005.66 1005.28 1004.99 1004.25 1003.97 1003.59 1003.43 1003.28 1003.28 1003.44 1003.57 1003.75 1004.03 1004.20 1004.35 1003.98 1003.87 1003.98 1004.07 1004.12 1004.15 1004.20 1004.21 1004.17 1004.17 1004.27 1004.26
1011.37 1010.82 1010.20 1009.84 1009.77 1009.52 1009.38 1009.03 1008.98 1008.88 1009.06 1009.49 1009.47 1009.07 1009.23 1008.95 1008.61 1008.36 1007.93 1007.70 1007.47 1006.93 1006.60 1006.50 1006.35 1006.30 1006.29 1005.90 1005.10 1004.59 1004.27 1003.97 1003.56 1003.52 1003.33 1003.28 1003.41 1003.98 1004.51 1004.74 1004.86 1005.03 1004.83 1004.78 1004.43 1004.49 1004.30 1004.48 1004.84 1004.78 1004.75 1004.67 1004.91 1004.87
1010.70 1010.03 1010.03 1009.81 1009.74 1009.66 1009.46 1009.18 1009.18 1009.43 1009.92 1010.17 1010.59 1010.53 1010.24 1009.72 1009.24 1008.68 1008.18 1008.02 1007.48 1007.49 1007.14 1006.92 1006.65 1006.30 1005.77 1005.25 1004.53 1004.07 1004.16 1003.77 1004.03 1003.96 1003.87 1003.92 1004.24 1005.00 1004.72 1004.89 1005.02 1005.14 1005.16 1005.00 1005.47 1005.23 1005.26 1005.58 1005.39 1005.16 1005.26 1005.42 1005.57 1005.44
1010.21 1009.95 1009.89 1009.79 1009.67 1009.41 1009.11 1009.11 1009.68 1010.18 1010.63 1010.85 1011.00 1010.84 1010.33 1009.39 1008.43 1008.28 1008.21 1007.97 1007.51 1007.10 1007.15 1006.94 1006.14 1005.79 1005.42 1005.02 1005.27 1005.54 1005.70 1005.63 1005.35 1005.09 1004.79 1004.82 1004.91 1004.97 1004.95 1004.88 1004.82 1004.77 1005.03 1004.90 1005.29 1005.42 1005.70 1005.60 1005.48 1005.11 1005.65 1005.73 1006.10 1006.01
1010.50 1010.62 1010.59 1010.53 1010.33 1010.03 1009.95 1010.14 1010.40 1010.59 1010.62 1010.61 1010.52 1010.33 1009.69 1008.60 1007.16 1007.22 1007.27 1007.44 1007.00 1006.49 1006.62 1006.49 1005.91 1005.78 1005.65 1005.80 1006.08 1006.30 1006.83 1007.14 1006.97 1006.71 1006.50 1006.02 1006.08 1006.16 1006.04 1005.92 1005.82 1005.98 1006.01 1005.97 1006.06 1006.25 1006.21 1005.83 1005.96 1006.08 1006.56 1006.82 1006.95 1006.93
1010.51 1010.56 1010.52 1010.61 1010.25 1009.59 1009.40 1009.33 1009.10 1009.28 1009.49 1009.42 1009.32 1009.33 1008.58 1007.34 1005.77 1005.24 1005.52 1005.26 1005.21 1005.15 1005.44 1005.48 1005.45 1006.07 1006.58 1007.15 1007.71 1008.32 1008.60 1008.74 1008.77 1008.66 1008.49 1008.01 1007.45 1007.07 1006.95 1006.91 1006.90 1006.88 1006.87 1007.05 1007.29 1007.31 1007.35 1007.29 1007.34 1007.35 1007.32 1007.70 1007.80 1007.87
1010.26 1010.07 1009.98 1009.86 1009.33 1008.46 1008.34 1008.14 1008.50 1008.69 1008.70 1008.30 1007.57 1007.14 1006.18 1005.77 1005.31 1004.84 1004.55 1004.12 1004.17 1004.54 1004.87 1005.42 1006.20 1007.16 1007.87 1008.25 1008.73 1009.24 1009.60 1010.05 1010.35 1010.20 1009.98 1009.71 1009.40 1009.20 1008.84 1008.30 1007.81 1007.72 1007.75 1007.83 1007.94 1008.10 1008.24 1008.30 1008.37 1008.44 1008.45 1008.54 1008.56 1008.58
Thickness
5593 5591 5588 5585 5582 5579 5578 5576 5574 5573 5571 5568 5565 5564 5562 5561 5560 5562 5575 5577 5574 5580 5595 5603 5605 5605 5609 5613 5610 5626 5627 5634 5637 5631 5638 5646 5652 5670 5672 5691 5688 5672 5699 5702 5711 5699 5699 5733 5720 5700 5735 5792 5800 5798
5586 5581 5578 5575 5572 5569 5567 5566 5563 5562 5560 5557 5554 5553 5552 5551 5551 5550 5562 5561 5562 5560 5583 5593 5597 5601 5603 5606 5606 5612 5614 5616 5618 5612 5616 5622 5626 5648 5654 5655 5694 5688 5713 5712 5725 5718 5712 5720 5707 5720 5727 5774 5785 5786
5578 5573 5568 5565 5562 5560 5558 5556 5554 5551 5550 5549 5546 5545 5543 5542 5541 5540 5547 5552 5557 5562 5580 5595 5603 5616 5616 5610 5608 5596 5609 5618 5618 5621 5620 5613 5610 5636 5624 5649 5639 5660 5675 5682 5681 5739 5716 5719 5726 5733 5753 5775 5781 5782
5568 5564 5560 5556 5553 5551 5549 5547 5544 5542 5541 5541 5538 5536 5536 5535 5534 5533 5540 5546 5542 5550 5560 5594 5614 5606 5613 5614 5613 5609 5606 5611 5615 5614 5607 5608 5608 5636 5631 5640 5634 5622 5644 5660 5678 5714 5723 5727 5734 5742 5747 5773 5772 5775
5559 5555 5552 5548 5546 5542 5541 5540 5538 5535 5534 5534 5532 5529 5528 5528 5529 5530 5535 5540 5539 5535 5554 5569 5584 5601 5603 5605 5606 5610 5606 5602 5601 5601 5601 5602 5614 5624 5640 5646 5648 5653 5637 5634 5651 5668 5695 5724 5721 5725 5725 5754 5758 5759
5550 5546 5544 5540 5537 5535 5535 5534 5532 5530 5529 5529 5527 5524 5523 5522 5522 5527 5538 5537 5534 5533 5528 5550 5585 5594 5594 5597 5597 5596 5606 5605 5602 5602 5605 5609 5614 5613 5613 5630 5655 5644 5647 5645 5646 5669 5683 5735 5737 5720 5734 5750 5749 5752
5541 5539 5535 5533 5531 5530 5530 5529 5527 5523 5522 5522 5521 5519 5518 5517 5518 5524 5524 5521 5523 5527 5519 5539 5567 5586 5590 5590 5593 5599 5607 5604 5595 5590 5593 5600 5611 5608 5614 5620 5640 5638 5658 5660 5665 5663 5689 5724 5729 5745 5748 5749 5746 5749
5534 5531 5529 5527 5526 5525 5524 5523 5522 5520 5517 5516 5515 5515 5514 5514 5516 5524 5533 5526 5519 5520 5519 5535 5570 5577 5574 5576 5575 5586 5588 5587 5590 5593 5599 5600 5607 5610 5615 5631 5642 5648 5655 5661 5661 5653 5680 5712 5729 5735 5740 5742 5739 5738
5526 5524 5523 5521 5520 5520 5519 5519 5517 5516 5513 5512 5512 5512 5514 5517 5525 5532 5527 5525 5520 5518 5523 5546 5561 5562 5578 5572 5572 5573 5575 5575 5595 5589 5597 5602 5610 5613 5628 5630 5634 5649 5647 5656 5662 5667 5682 5698 5718 5729 5727 5736 5735 5733
5520 5519 5517 5516 5515 5516 5515 5514 5513 5511 5509 5508 5510 5518 5525 5531 5527 5526 5521 5520 5516 5525 5533 5553 5571 5567 5578 5575 5573 5567 5568 5571 5582 5599 5611 5603 5616 5632 5633 5632 5634 5650 5655 5654 5644 5661 5665 5681 5711 5706 5723 5729 5737 5732
5515 5513 5512 5512 5512 5512 5512 5511 5509 5507 5508 5513 5516 5524 5530 5527 5531 5529 5530 5528 5542 5544 5554 5570 5573 5570 5580 5571 5569 5576 5573 5577 5578 5603 5601 5607 5619 5618 5623 5633 5650 5651 5654 5649 5651 5650 5645 5645 5713 5714 5722 5730 5731 5726
5509 5509 5508 5507 5507 5507 5508 5507 5505 5505 5506 5505 5506 5518 5529 5534 5535 5534 5536 5553 5556 5560 5567 5562 5564 5569 5573 5577 5579 5575 5575 5567 5580 5597 5598 5611 5606 5611 5620 5628 5643 5654 5664 5663 5663 5649 5645 5658 5676 5713 5718 5721 5722 5718
5504 5504 5503 5502 5502 5502 5502 5501 5500 5499 5501 5509 5511 5521 5534 5542 5528 5542 5563 5566 5565 5565 5565 5562 5557 5564 5571 5581 5577 5584 5582 5585 5593 5598 5608 5598 5608 5614 5622 5628 5640 5651 5664 5674 5676 5670 5660 5666 5700 5711 5708 5712 5712 5709
5499 5499 5499 5498 5498 5498 5498 5498 5497 5497 5499 5508 5521 5516 5535 5545 5554 5567 5565 5560 5565 5565 5564 5561 5563 5564 5574 5575 5590 5587 5601 5613 5610 5607 5603 5610 5613 5618 5621 5629 5637 5647 5658 5671 5672 5681 5681 5685 5693 5697 5705 5706 5704 5702
5495 5495 5496 5496 5496 5496 5496 5495 5495 5495 5498 5512 5525 5527 5546 5561 5568 5569 5578 5567 5563 5566 5567 5567 5570 5574 5574 5579 5592 5602 5608 5613 5611 5602 5611 5611 5612 5614 5620 5628 5637 5649 5659 5669 5676 5674 5681 5684 5684 5684 5686 5699 5699 5698
5491 5492 5493 5492 5492 5493 5493 5492 5493 5494 5500 5513 5526 5538 5549 5553 5566 5570 5575 5565 5568 5567 5557 5552 5562 5572 5577 5585 5594 5603 5608 5604 5609 5613 5615 5611 5608 5612 5620 5628 5637 5647 5653 5658 5667 5684 5689 5688 5684 5677 5659 5687 5696 5691
5486 5492 5489 5489 5490 5490 5490 5491 5494 5502 5513 5528 5536 5551 5551 5555 5560 5568 5571 5567 5569 5565 5553 5556 5563 5581 5588 5594 5601 5596 5602 5611 5613 5615 5616 5616 5615 5615 5620 5624 5633 5639 5640 5647 5654 5673 5680 5687 5685 5684 5684 5686 5690 5690
5486 5486 5485 5485 5486 5488 5490 5493 5504 5516 5524 5534 5537 5549 5557 5560 5562 5570 5569 5573 5573 5565 5559 5562 5563 5574 5586 5588 5592 5595 5604 5616 5618 5616 5615 5616 5615 5620 5623 5626 5631 5632 5636 5633 5645 5669 5671 5679 5685 5684 5684 5683 5681 5683
5481 5480 5480 5481 5482 5485 5495 5505 5509 5521 5535 5545 5548 5556 5558 5564 5568 5577 5580 5581 5582 5573 5571 5571 5575 5584 5591 5607 5605 5617 5618 5617 5618 5619 5622 5621 5623 5624 5629 5634 5635 5637 5636 5639 5651 5652 5657 5668 5676 5681 5682 5679 5680 5684
5476 5477 5477 5477 5479 5488 5495 5509 5519 5527 5538 5546 5548 5553 5557 5564 5571 5573 5574 5580 5578 5575 5574 5579 5592 5603 5605 5609 5613 5618 5619 5620 5622 5628 5625 5630 5630 5633 5632 5632 5637 5640 5640 5646 5652 5647 5638 5652 5664 5669 5677 5680 5680 5681
5476 5480 5476 5477 5482 5488 5499 5514 5519 5532 5540 5543 5551 5551 5551 5566 5567 5573 5574 5587 5583 5582 5584 5598 5605 5619 5616 5619 5624 5625 5623 5623 5622 5621 5623 5628 5634 5640 5639 5637 5634 5637 5623 5627 5637 5647 5648 5652 5650 5657 5651 5670 5678 5682
5474 5473 5476 5478 5487 5496 5504 5521 5526 5530 5534 5545 5552 5557 5560 5564 5567 5575 5583 5586 5590 5593 5603 5609 5613 5619 5621 5618 5618 5622 5622 5623 5625 5626 5620 5624 5626 5635 5632 5633 5638 5638 5629 5630 5628 5626 5637 5649 5649 5649 5640 5657 5675 5675
5468 5471 5479 5485 5493 5497 5502 5522 5524 5532 5536 5547 5554 5557 5567 5571 5575 5587 5585 5600 5608 5613 5618 5614 5617 5618 5617 5620 5620 5621 5618 5615 5617 5618 5617 5620 5623 5625 5623 5622 5629 5633 5638 5636 5641 5639 5641 5642 5644 5650 5657 5663 5664 5666
5463 5468 5478 5490 5497 5500 5517 5522 5528 5535 5543 5548 5553 5561 5568 5571 5578 5580 5588 5598 5606 5611 5616 5613 5617 5612 5611 5610 5607 5608 5609 5614 5611 5610 5613 5614 5616 5615 5618 5619 5621 5625 5627 5631 5635 5637 5638 5640 5643 5637 5636 5636 5638 5643
5460 5471 5477 5478 5499 5506 5519 5527 5530 5538 5542 5551 5553 5561 5563 5574 5575 5585 5590 5592 5597 5597 5600 5600 5600 5601 5598 5598 5599 5603 5608 5610 5607 5607 5612 5611 5611 5610 5611 5614 5616 5617 5622 5621 5623 5624 5623 5620 5626 5632 5629 5631 5630 5628
5463 5487 5480 5505 5511 5519 5525 5527 5528 5532 5544 5549 5557 5561 5566 5570 5576 5580 5580 5581 5584 5585 5588 5588 5592 5593 5594 5594 5601 5601 5600 5603 5604 5605 5612 5614 5617 5613 5610 5610 5610 5610 5615 5616 5616 5617 5619 5622 5624 5623 5624 5617 5610 5614
5472 5496 5503 5514 5515 5518 5522 5531 5533 5534 5542 5548 5550 5552 5552 5559 5567 5569 5572 5575 5578 5586 5585 5586 5588 5589 5590 5592 5595 5601 5610 5613 5614 5615 5619 5619 5617 5615 5612 5607 5606 5608 5613 5614 5612 5610 5608 5607 5607 5607 5608 5609 5608 5607
5496 5500 5504 5513 5515 5524 5524 5531 5534 5538 5539 5539 5543 5548 5545 5552 5559 5561 5566 5571 5573 5580 5584 5585 5588 5588 5588 5592 5601 5606 5608 5612 5617 5617 5620 5620 5619 5613 5608 5605 5605 5600 5604 5604 5608 5607 5608 5606 5602 5601 5600 5600 5598 5599
5498 5509 5510 5513 5518 5522 5526 5532 5536 5538 5536 5537 5533 5538 5545 5552 5557 5563 5566 5566 5574 5576 5579 5582 5587 5591 5595 5600 5608 5613 5612 5614 5607 5604 5604 5604 5605 5599 5605 5604 5601 5600 5599 5600 5591 5595 5595 5594 5594 5595 5591 5588 5587 5588
5506 5514 5516 5522 5525 5529 5537 5539 5536 5533 5532 5534 5536 5538 5544 5552 5563 5568 5568 5571 5573 5578 5579 5583 5591 5594 5595 5600 5597 5597 5599 5599 5601 5600 5599 5598 5598 5601 5601 5601 5601 5601 5598 5598 5595 5592 5587 5588 5587 5588 5581 5578 5574 5573
5509 5510 5512 5515 5520 5528 5530 5530 5530 5531 5534 5539 5541 5544 5550 5563 5578 5581 5579 5577 5583 5587 5586 5586 5592 5594 5595 5594 5592 5590 5585 5586 5588 5590 5593 5595 5593 5590 5590 5590 5589 5587 5585 5583 5581 5578 5578 5579 5575 5572 5564 5559 5556 5553
5515 5515 5518 5510 5518 5533 5535 5535 5542 5546 5548 5553 5554 5555 5563 5575 5588 5596 5594 5597 5597 5596 5592 5594 5595 5590 5589 5585 5580 5575 5572 5571 5571 5572 5573 5577 5580 5582 5581 5579 5577 5575 5573 5569 5565 5563 5560 5558 5554 5551 5549 5542 5539 5536
5523 5526 5530 5533 5538 5550 5554 5558 5556 5556 5560 5565 5574 5579 5589 5588 5585 5596 5604 5608 5606 5602 5599 5596 5591 5584 5578 5575 5571 5566 5564 5560 5554 5553 5555 5556 5558 5559 5563 5565 5566 5564 5560 5557 5553 5549 5545 5541 5537 5534 5531 5527 5524 5522